User: anonymous   Login
Location: Unspecified
(0.0000°N, 0.0000°E)
Time: 19:10:00
(UTC+00:00)
Language:

STARLINK-30149 - Orbit

View from above orbital plane
View from above orbital plane
View from above satellite
View from above satellite

Ground track
Ground track

The orbit is defined by the following mean orbital elements,

1 57516U          26145.17120655 +.00000000 +00000-0 +54980-4 0 00002
2 57516  43.0058 304.0101 0001942 270.5541  89.5088 15.27584938    05
Epoch (UTC): 25 May 2026 04:06:32
Eccentricity: 0.0001942
inclination: 43.0058°
perigee height: 482 km
apogee height: 484 km
right ascension of ascending node: 304.0101°
argument of perigee: 270.5541°
revolutions per day: 15.27584938
mean anomaly at epoch: 89.5088°

The dashed part of the orbit path shows where the satellite is in the earth's shadow,  

DLR